Date String (YYYY-MM-DD hh:mm:ss) UTC,Instrument flags,absolute air pressure of the measurement (hPa),sample flow rate (lpm),inlet stack bypass flow (lpm),air temperature of the measurement (°C),ambient temperature measured by the external sensor (°C),aerosol sample conditioner tube jacket temperature (°C),OPC LED temperature (°C),internal box temperature (°C),relative humidity of the measurement (%),span deviation,mass concentration of particles derived from Lorenz-Mie calculation of OPC scattering (μg/m³),mass concentration of particles derived from Lorenz-Mie calculation of OPC scattering (μg/m³),mass concentration of particles derived from Lorenz-Mie calculation of OPC scattering (μg/m³)
DateTimeUTC,F1_M11,P_M11,Q1_M11,Q2_M11,T1_M11,T2_M11,T3_M11,T4_M11,T5_M11,U1_M11,ZSPAN_M11,X0_M11,X2_M11,X1_M11
2024-05-17 23:00:00,SystemResetWarning,0820.5,5.00,000.00,023.1,021.0,000.0,031.7,024.3,014.3,0000.0,0005.82,0002.94,0002.05
2024-05-17 23:01:00,SystemResetWarning,0820.6,5.01,000.00,023.2,021.5,000.0,031.6,024.6,014.3,0000.0,0006.62,0002.95,0002.07
2024-05-17 23:02:00,SystemResetWarning,0820.6,4.99,000.00,023.2,021.9,000.0,031.6,024.8,014.9,0000.0,0006.48,0002.94,0002.07
2024-05-17 23:03:00,SystemResetWarning,0820.7,4.99,000.00,023.3,022.3,000.0,031.5,025.0,014.4,0000.0,0006.52,0002.95,0002.06
2024-05-17 23:04:00,SystemResetWarning,0820.7,5.00,000.00,023.4,022.7,000.0,031.5,025.2,014.7,0000.0,0007.01,0002.92,0002.05
2024-05-17 23:05:00,SystemResetWarning,0820.7,5.02,000.00,023.5,023.0,000.0,031.6,025.4,014.5,0000.0,0006.91,0002.82,0002.03
2024-05-17 23:06:00,SystemResetWarning,0820.7,4.99,000.00,023.6,023.3,000.0,031.6,025.5,013.9,0000.0,0006.85,0002.79,0002.01
2024-05-17 23:07:00,SystemResetWarning,0820.7,4.99,000.00,023.7,023.2,000.0,031.6,025.4,014.4,0000.0,0007.01,0002.81,0002.00
2024-05-17 23:08:00,SystemResetWarning,0820.6,5.00,000.00,023.5,021.5,000.0,031.7,024.5,014.3,0000.0,0007.05,0002.81,0001.99
2024-05-17 23:09:00,SystemResetWarning,0820.6,5.00,000.00,023.2,020.7,000.0,031.7,024.1,014.4,0000.0,0007.08,0002.82,0001.98
2024-05-17 23:10:00,SystemResetWarning,0820.6,5.02,000.00,023.1,021.3,000.0,031.7,024.4,014.4,0000.0,0007.17,0002.89,0001.98
2024-05-17 23:11:00,SystemResetWarning,0820.7,5.00,000.00,023.2,021.7,000.0,031.6,024.7,015.8,0000.0,0007.07,0002.88,0001.98
2024-05-17 23:12:00,SystemResetWarning,0820.5,5.00,000.00,023.3,022.1,000.0,031.5,024.9,015.6,0000.0,0006.27,0002.83,0001.95
2024-05-17 23:13:00,SystemResetWarning,0820.6,5.00,000.00,023.3,022.5,000.0,031.5,025.1,015.4,0000.0,0006.38,0002.84,0001.94
2024-05-17 23:14:00,SystemResetWarning,0820.6,5.01,000.00,023.4,022.8,000.0,031.5,025.2,014.6,0000.0,0006.68,0002.91,0001.94
2024-05-17 23:15:00,SystemResetWarning,0820.8,4.98,000.00,023.5,023.1,000.0,031.6,025.4,015.1,0000.0,0006.30,0002.94,0001.94
2024-05-17 23:16:00,SystemResetWarning,0820.7,4.99,000.00,023.6,023.1,000.0,031.6,025.4,014.1,0000.0,0006.17,0002.92,0001.94
2024-05-17 23:17:00,SystemResetWarning,0820.6,4.99,000.00,023.4,021.6,000.0,031.7,024.5,014.4,0000.0,0006.27,0002.94,0001.95
2024-05-17 23:18:00,SystemResetWarning,0820.6,5.01,000.00,023.1,020.7,000.0,031.7,024.0,015.4,0000.0,0006.33,0002.99,0001.96
2024-05-17 23:19:00,SystemResetWarning,0820.5,5.01,000.00,023.1,021.2,000.0,031.7,024.3,015.7,0000.0,0006.32,0003.02,0001.97
2024-05-17 23:20:00,SystemResetWarning,0820.5,4.99,000.00,023.1,021.6,000.0,031.6,024.6,015.1,0000.0,0006.36,0003.07,0002.00
2024-05-17 23:21:00,SystemResetWarning,0820.5,5.01,000.00,023.2,022.1,000.0,031.5,024.9,015.4,0000.0,0006.62,0003.04,0002.01
2024-05-17 23:22:00,SystemResetWarning,0820.5,5.00,000.00,023.3,022.5,000.0,031.5,025.0,015.1,0000.0,0006.40,0002.99,0002.01
2024-05-17 23:23:00,SystemResetWarning,0820.5,5.00,000.00,023.4,022.8,000.0,031.5,025.2,014.8,0000.0,0005.93,0003.04,0002.02
2024-05-17 23:24:00,SystemResetWarning,0820.6,5.00,000.00,023.5,023.1,000.0,031.5,025.4,015.0,0000.0,0006.03,0003.05,0002.03
2024-05-17 23:25:00,SystemResetWarning,0820.6,5.00,000.00,023.6,023.4,000.0,031.6,025.5,015.6,0000.0,0005.95,0003.03,0002.04
2024-05-17 23:26:00,SystemResetWarning,0820.6,4.99,000.00,023.7,023.4,000.0,031.6,025.5,016.3,0000.0,0005.87,0002.97,0002.04
2024-05-17 23:27:00,SystemResetWarning,0820.5,4.99,000.00,023.6,021.8,000.0,031.7,024.8,015.3,0000.0,0006.27,0003.01,0002.05
2024-05-17 23:28:00,SystemResetWarning,0820.7,5.01,000.00,023.2,020.6,000.0,031.7,024.2,014.7,0000.0,0006.96,0003.02,0002.05
2024-05-17 23:29:00,SystemResetWarning,0820.8,5.00,000.00,023.2,021.1,000.0,031.7,024.4,014.9,0000.0,0007.18,0003.02,0002.06
2024-05-17 23:30:00,SystemResetWarning,0820.7,5.00,000.00,023.2,021.6,000.0,031.6,024.7,014.7,0000.0,0007.29,0003.03,0002.06
2024-05-17 23:31:00,SystemResetWarning,0820.5,5.01,000.00,023.3,022.0,000.0,031.6,024.9,014.9,0000.0,0007.80,0003.07,0002.05
2024-05-17 23:32:00,SystemResetWarning,0820.6,5.00,000.00,023.3,022.4,000.0,031.5,025.1,014.5,0000.0,0007.97,0003.07,0002.04
2024-05-17 23:33:00,SystemResetWarning,0820.6,4.99,000.00,023.4,022.8,000.0,031.5,025.2,014.7,0000.0,0007.91,0003.08,0002.04
2024-05-17 23:34:00,SystemResetWarning,0820.7,4.99,000.00,023.5,023.1,000.0,031.6,025.4,015.3,0000.0,0008.07,0003.09,0002.03
2024-05-17 23:35:00,SystemResetWarning,0820.6,5.00,000.00,023.6,023.3,000.0,031.6,025.5,014.9,0000.0,0008.04,0003.08,0002.01
2024-05-17 23:36:00,SystemResetWarning,0820.6,4.99,000.00,023.7,022.9,000.0,031.7,025.3,014.4,0000.0,0008.20,0003.08,0001.99
2024-05-17 23:37:00,SystemResetWarning,0820.6,4.99,000.00,023.4,021.1,000.0,031.7,024.3,014.6,0000.0,0008.18,0003.08,0002.00
2024-05-17 23:38:00,SystemResetWarning,0820.5,5.01,000.00,023.2,020.8,000.0,031.8,024.1,015.6,0000.0,0008.57,0003.09,0001.99
2024-05-17 23:39:00,SystemResetWarning,0820.5,5.00,000.00,023.2,021.3,000.0,031.7,024.4,015.6,0000.0,0008.20,0003.08,0001.99
2024-05-17 23:40:00,SystemResetWarning,0820.5,4.99,000.00,023.2,021.7,000.0,031.6,024.7,015.4,0000.0,0008.02,0003.08,0001.98
2024-05-17 23:41:00,SystemResetWarning,0820.6,5.01,000.00,023.3,022.1,000.0,031.6,024.9,015.0,0000.0,0007.84,0003.00,0001.96
2024-05-17 23:42:00,SystemResetWarning,0820.6,5.01,000.00,023.4,022.5,000.0,031.5,025.1,015.3,0000.0,0007.25,0002.95,0001.94
2024-05-17 23:43:00,SystemResetWarning,0820.6,5.00,000.00,023.5,022.9,000.0,031.5,025.3,014.3,0000.0,0006.95,0002.90,0001.92
2024-05-17 23:44:00,SystemResetWarning,0820.6,5.00,000.00,023.6,023.2,000.0,031.6,025.5,015.2,0000.0,0006.66,0002.89,0001.91
2024-05-17 23:45:00,SystemResetWarning,0820.7,4.99,000.00,023.7,023.4,000.0,031.6,025.6,014.8,0000.0,0007.19,0002.88,0001.90
2024-05-17 23:46:00,SystemResetWarning,0820.7,4.99,000.00,023.6,022.2,000.0,031.7,024.9,014.7,0000.0,0007.25,0002.89,0001.90
2024-05-17 23:47:00,SystemResetWarning,0820.6,5.01,000.00,023.3,020.7,000.0,031.7,024.1,014.8,0000.0,0007.19,0002.84,0001.90
2024-05-17 23:48:00,SystemResetWarning,0820.7,5.01,000.00,023.1,021.0,000.0,031.7,024.2,015.0,0000.0,0007.71,0002.79,0001.89
2024-05-17 23:49:00,SystemResetWarning,0820.7,5.00,000.00,023.2,021.4,000.0,031.6,024.5,015.5,0000.0,0007.34,0002.79,0001.87
2024-05-17 23:50:00,SystemResetWarning,0820.7,4.99,000.00,023.2,021.8,000.0,031.6,024.8,015.6,0000.0,0007.84,0002.81,0001.87
2024-05-17 23:51:00,SystemResetWarning,0820.7,4.99,000.00,023.3,022.3,000.0,031.5,025.0,015.6,0000.0,0008.22,0002.83,0001.87
2024-05-17 23:52:00,SystemResetWarning,0820.7,5.00,000.00,023.4,022.6,000.0,031.5,025.2,015.0,0000.0,0008.30,0002.87,0001.87
2024-05-17 23:53:00,SystemResetWarning,0820.8,5.01,000.00,023.5,023.0,000.0,031.6,025.3,014.5,0000.0,0008.31,0002.88,0001.87
2024-05-17 23:54:00,SystemResetWarning,0820.8,4.99,000.00,023.6,023.2,000.0,031.6,025.5,014.7,0000.0,0008.31,0002.89,0001.88
2024-05-17 23:55:00,SystemResetWarning,0820.8,4.98,000.00,023.7,023.5,000.0,031.6,025.6,015.0,0000.0,0008.32,0002.91,0001.88
2024-05-17 23:56:00,SystemResetWarning,0820.8,5.01,000.00,023.7,022.6,000.0,031.7,025.1,014.3,0000.0,0007.90,0002.91,0001.89
2024-05-17 23:57:00,SystemResetWarning,0820.8,5.00,000.00,023.3,021.0,000.0,031.8,024.3,014.5,0000.0,0008.25,0002.88,0001.88
2024-05-17 23:58:00,SystemResetWarning,0820.8,5.02,000.00,023.2,021.0,000.0,031.8,024.3,014.6,0000.0,0008.36,0002.86,0001.87
2024-05-17 23:59:00,SystemResetWarning,0820.8,5.00,000.00,023.2,021.5,000.0,031.7,024.6,014.7,0000.0,0008.23,0002.90,0001.87
